Location: Woodhurst
(52.3667°N, 0.0667°W)
Time: 21:23:19
(UTC+00:00)

Lacrosse 5 rocket - Pass Details

Date: 19 May 2025
Orbit: 419 x 515 km, 57.0° (Epoch: 18 June)

Event Time Altitude Azimuth Distance (km) Brightness Sun altitude
Rises 21:19:16 0° 296° (WNW) 2,494 5.9 -10.0°
Reaches altitude 10° 21:21:35 10° 286° (WNW) 1,596 4.5 -10.2°
Maximum altitude 21:24:46 31° 223° (SW) 812 2.1 -10.5°
Enters shadow 21:27:06 15° 166° (SSE) 1,283 2.6 -10.7°
